Time,TemperatureF,DewpointF,PressureIn,WindDirection,WindDirectionDegrees,WindSpeedMPH,WindSpeedGustMPH,Humidity,HourlyPrecipIn,Conditions,Clouds,dailyrainin,SoftwareType,DateUTC
2013-03-27 00:00:00,35.8,28.6,28.53,South,179,4.6,4.6,75,0.00,CLR,CLR,0.00,WeatherDisplay:10.37,2013-03-27 04:00:00,
2013-03-27 00:02:00,35.7,28.6,28.52,South,180,4.6,4.6,75,0.00,CLR,CLR,0.00,WeatherDisplay:10.37,2013-03-27 04:02:00,
2013-03-27 00:07:00,35.8,29.0,28.53,SSW,210,5.8,5.8,76,0.00,CLR,CLR,0.00,WeatherDisplay:10.37,2013-03-27 04:07:00,
2013-03-27 00:12:00,35.8,29.0,28.53,SW,221,6.0,6.0,76,0.00,CLR,CLR,0.00,WeatherDisplay:10.37,2013-03-27 04:12:00,
2013-03-27 00:18:00,35.8,29.0,28.53,SSW,207,4.6,4.6,76,0.00,CLR,CLR,0.00,WeatherDisplay:10.37,2013-03-27 04:18:00,
2013-03-27 00:23:00,35.7,29.2,28.53,SSW,194,3.5,3.5,77,0.00,CLR,CLR,0.00,WeatherDisplay:10.37,2013-03-27 04:23:00,
2013-03-27 00:28:00,35.6,29.1,28.53,SSW,213,4.0,4.0,77,0.00,CLR,CLR,0.00,WeatherDisplay:10.37,2013-03-27 04:28:00,
2013-03-27 00:33:00,35.5,28.7,28.53,SW,214,2.0,2.0,76,0.00,CLR,CLR,0.00,WeatherDisplay:10.37,2013-03-27 04:33:00,
2013-03-27 00:38:00,35.3,28.5,28.53,SW,235,5.8,5.8,76,0.00,CLR,CLR,0.00,WeatherDisplay:10.37,2013-03-27 04:38:00,
2013-03-27 00:44:00,35.2,28.7,28.53,SW,223,3.5,3.5,77,0.00,CLR,CLR,0.00,WeatherDisplay:10.37,2013-03-27 04:44:00,
2013-03-27 00:49:00,35.1,28.6,28.54,SW,219,3.5,3.5,77,0.00,CLR,CLR,0.00,WeatherDisplay:10.37,2013-03-27 04:49:00,
2013-03-27 00:54:00,35.0,28.5,28.54,SW,216,3.5,3.5,77,0.00,CLR,CLR,0.00,WeatherDisplay:10.37,2013-03-27 04:54:00,
2013-03-27 00:59:00,35.1,28.6,28.54,SW,231,3.5,3.5,77,0.00,CLR,CLR,0.00,WeatherDisplay:10.37,2013-03-27 04:59:00,
2013-03-27 01:04:00,35.1,28.6,28.53,NW,307,5.0,5.0,77,0.00,CLR,CLR,0.00,WeatherDisplay:10.37,2013-03-27 05:04:00,
2013-03-27 01:09:00,35.1,28.6,28.53,SW,215,4.0,4.0,77,0.00,CLR,CLR,0.00,WeatherDisplay:10.37,2013-03-27 05:09:00,
2013-03-27 01:15:00,35.1,28.6,28.53,SSW,197,3.5,3.5,77,0.00,CLR,CLR,0.00,WeatherDisplay:10.37,2013-03-27 05:15:00,
2013-03-27 01:20:00,35.0,28.5,28.53,SSW,197,5.0,5.0,77,0.00,CLR,CLR,0.00,WeatherDisplay:10.37,2013-03-27 05:20:00,
2013-03-27 01:25:00,34.7,28.5,28.54,South,187,5.0,5.0,78,0.00,CLR,CLR,0.00,WeatherDisplay:10.37,2013-03-27 05:25:00,
2013-03-27 01:30:00,34.5,28.3,28.53,South,182,5.8,5.8,78,0.00,CLR,CLR,0.00,WeatherDisplay:10.37,2013-03-27 05:30:00,
2013-03-27 01:35:00,34.3,28.2,28.53,SSW,196,3.5,3.5,78,0.00,CLR,CLR,0.00,WeatherDisplay:10.37,2013-03-27 05:35:00,
2013-03-27 01:40:00,34.1,28.0,28.53,SSW,196,4.6,4.6,78,0.00,CLR,CLR,0.00,WeatherDisplay:10.37,2013-03-27 05:40:00,
2013-03-27 01:45:00,33.9,28.4,28.53,South,174,4.6,4.6,80,0.00,CLR,CLR,0.00,WeatherDisplay:10.37,2013-03-27 05:45:00,
2013-03-27 01:51:00,33.7,28.5,28.54,South,174,3.5,3.5,81,0.00,CLR,CLR,0.00,WeatherDisplay:10.37,2013-03-27 05:51:00,
2013-03-27 01:56:00,33.5,28.3,28.53,South,175,4.0,4.0,81,0.00,CLR,CLR,0.00,WeatherDisplay:10.37,2013-03-27 05:56:00,
2013-03-27 02:01:00,33.4,28.2,28.53,South,176,2.3,2.3,81,0.00,CLR,CLR,0.00,WeatherDisplay:10.37,2013-03-27 06:01:00,
2013-03-27 02:06:00,33.3,28.1,28.53,South,176,3.5,3.5,81,0.00,CLR,CLR,0.00,WeatherDisplay:10.37,2013-03-27 06:06:00,
2013-03-27 02:12:00,33.2,28.0,28.53,South,180,3.5,3.5,81,0.00,CLR,CLR,0.00,WeatherDisplay:10.37,2013-03-27 06:12:00,
2013-03-27 02:17:00,33.2,28.0,28.53,South,180,1.2,0.0,81,0.00,CLR,CLR,0.00,WeatherDisplay:10.37,2013-03-27 06:17:00,
2013-03-27 02:22:00,33.3,28.1,28.53,South,180,1.0,0.0,81,0.00,CLR,CLR,0.00,WeatherDisplay:10.37,2013-03-27 06:22:00,
2013-03-27 02:27:00,33.4,28.2,28.54,NW,305,3.5,3.5,81,0.00,CLR,CLR,0.00,WeatherDisplay:10.37,2013-03-27 06:27:00,
2013-03-27 02:32:00,33.8,28.6,28.53,WNW,285,3.5,3.5,81,0.00,CLR,CLR,0.00,WeatherDisplay:10.37,2013-03-27 06:32:00,
2013-03-27 02:38:00,34.0,28.5,28.53,WNW,291,3.5,3.5,80,0.00,CLR,CLR,0.00,WeatherDisplay:10.37,2013-03-27 06:38:00,
2013-03-27 02:43:00,34.1,28.6,28.53,WNW,285,3.5,3.5,80,0.00,CLR,CLR,0.00,WeatherDisplay:10.37,2013-03-27 06:43:00,
2013-03-27 02:48:00,34.2,28.7,28.52,WNW,288,3.5,3.5,80,0.00,CLR,CLR,0.00,WeatherDisplay:10.37,2013-03-27 06:48:00,
2013-03-27 02:53:00,34.2,28.7,28.52,WNW,288,0.0,0.0,80,0.00,CLR,CLR,0.00,WeatherDisplay:10.37,2013-03-27 06:53:00,
2013-03-27 02:58:00,34.2,28.7,28.53,WNW,288,3.5,3.5,80,0.00,CLR,CLR,0.00,WeatherDisplay:10.37,2013-03-27 06:58:00,
2013-03-27 03:03:00,34.2,28.7,28.52,WNW,288,0.0,0.0,80,0.00,CLR,CLR,0.00,WeatherDisplay:10.37,2013-03-27 07:03:00,
2013-03-27 03:08:00,34.1,28.6,28.53,WNW,288,2.3,2.3,80,0.00,CLR,CLR,0.00,WeatherDisplay:10.37,2013-03-27 07:08:00,
2013-03-27 03:13:00,34.0,28.5,28.52,West,261,1.2,1.2,80,0.00,CLR,CLR,0.00,WeatherDisplay:10.37,2013-03-27 07:13:00,
2013-03-27 03:18:00,33.9,28.4,28.52,West,261,1.2,0.0,80,0.00,CLR,CLR,0.00,WeatherDisplay:10.37,2013-03-27 07:18:00,
2013-03-27 03:23:00,33.8,28.3,28.52,West,261,1.2,1.2,80,0.00,CLR,CLR,0.00,WeatherDisplay:10.37,2013-03-27 07:23:00,
2013-03-27 03:29:00,33.7,28.2,28.52,West,261,1.2,1.2,80,0.00,CLR,CLR,0.00,WeatherDisplay:10.37,2013-03-27 07:29:00,
2013-03-27 03:34:00,33.5,28.0,28.52,WNW,288,3.5,3.5,80,0.00,CLR,CLR,0.00,WeatherDisplay:10.37,2013-03-27 07:34:00,
2013-03-27 03:39:00,33.4,27.6,28.52,NW,307,5.8,5.8,79,0.00,CLR,CLR,0.00,WeatherDisplay:10.37,2013-03-27 07:39:00,
2013-03-27 03:44:00,33.5,27.7,28.52,West,279,5.8,5.8,79,0.00,CLR,CLR,0.00,WeatherDisplay:10.37,2013-03-27 07:44:00,
2013-03-27 03:49:00,33.4,27.6,28.52,West,272,3.5,3.5,79,0.00,CLR,CLR,0.00,WeatherDisplay:10.37,2013-03-27 07:49:00,
2013-03-27 03:54:00,33.3,27.2,28.52,West,272,2.3,2.3,78,0.00,CLR,CLR,0.00,WeatherDisplay:10.37,2013-03-27 07:54:00,
2013-03-27 03:59:00,33.0,26.9,28.51,West,272,2.3,2.3,78,0.00,CLR,CLR,0.00,WeatherDisplay:10.37,2013-03-27 07:59:00,
2013-03-27 04:05:00,32.7,26.6,28.52,West,272,2.3,0.0,78,0.00,CLR,CLR,0.00,WeatherDisplay:10.37,2013-03-27 08:05:00,
2013-03-27 04:10:00,32.6,26.5,28.52,West,272,3.5,3.5,78,0.00,CLR,CLR,0.00,WeatherDisplay:10.37,2013-03-27 08:10:00,
2013-03-27 04:15:00,32.6,26.8,28.52,SW,225,3.5,3.5,79,0.00,CLR,CLR,0.00,WeatherDisplay:10.37,2013-03-27 08:15:00,
2013-03-27 04:20:00,32.8,27.0,28.52,SW,214,5.8,5.8,79,0.00,CLR,CLR,0.00,WeatherDisplay:10.37,2013-03-27 08:20:00,
2013-03-27 04:25:00,33.0,27.2,28.52,WSW,240,6.9,6.9,79,0.00,CLR,CLR,0.00,WeatherDisplay:10.37,2013-03-27 08:25:00,
2013-03-27 04:30:00,33.1,27.3,28.53,WSW,240,2.0,2.0,79,0.00,CLR,CLR,0.00,WeatherDisplay:10.37,2013-03-27 08:30:00,
2013-03-27 04:35:00,33.2,27.4,28.53,SW,233,2.3,2.3,79,0.00,CLR,CLR,0.00,WeatherDisplay:10.37,2013-03-27 08:35:00,
2013-03-27 04:41:00,33.2,27.4,28.53,SW,233,2.3,2.3,79,0.00,CLR,CLR,0.00,WeatherDisplay:10.37,2013-03-27 08:41:00,
2013-03-27 04:46:00,33.1,27.3,28.53,South,181,3.5,3.5,79,0.00,CLR,CLR,0.00,WeatherDisplay:10.37,2013-03-27 08:46:00,
2013-03-27 04:51:00,33.0,27.2,28.52,WSW,250,5.8,5.8,79,0.00,CLR,CLR,0.00,WeatherDisplay:10.37,2013-03-27 08:51:00,
2013-03-27 04:57:00,33.0,27.2,28.53,WSW,244,1.2,0.0,79,0.00,CLR,CLR,0.00,WeatherDisplay:10.37,2013-03-27 08:57:00,
2013-03-27 05:02:00,33.0,27.2,28.53,WSW,244,3.5,3.5,79,0.00,CLR,CLR,0.00,WeatherDisplay:10.37,2013-03-27 09:02:00,
2013-03-27 05:07:00,33.1,27.3,28.53,WSW,244,3.5,3.5,79,0.00,CLR,CLR,0.00,WeatherDisplay:10.37,2013-03-27 09:07:00,
2013-03-27 05:13:00,33.1,27.3,28.53,WSW,255,5.0,5.0,79,0.00,CLR,CLR,0.00,WeatherDisplay:10.37,2013-03-27 09:13:00,
2013-03-27 05:18:00,33.1,27.3,28.53,NNW,340,1.2,1.2,79,0.00,CLR,CLR,0.00,WeatherDisplay:10.37,2013-03-27 09:18:00,
2013-03-27 05:23:00,33.0,27.5,28.54,NNW,339,2.3,2.3,80,0.00,CLR,CLR,0.00,WeatherDisplay:10.37,2013-03-27 09:23:00,
2013-03-27 05:28:00,32.9,27.4,28.54,WSW,255,3.5,3.5,80,0.00,CLR,CLR,0.00,WeatherDisplay:10.37,2013-03-27 09:28:00,
2013-03-27 05:33:00,32.9,27.1,28.54,NW,308,8.0,8.0,79,0.00,CLR,CLR,0.00,WeatherDisplay:10.37,2013-03-27 09:33:00,
2013-03-27 05:39:00,32.8,27.3,28.54,West,269,3.5,3.5,80,0.00,CLR,CLR,0.00,WeatherDisplay:10.37,2013-03-27 09:39:00,
2013-03-27 05:44:00,32.7,26.9,28.53,West,263,5.8,5.8,79,0.00,CLR,CLR,0.00,WeatherDisplay:10.37,2013-03-27 09:44:00,
2013-03-27 05:49:00,32.6,26.8,28.57,WSW,257,3.0,3.0,79,0.00,CLR,CLR,0.00,WeatherDisplay:10.37,2013-03-27 09:49:00,
2013-03-27 05:54:00,32.5,26.7,28.57,WSW,247,4.6,4.6,79,0.00,CLR,CLR,0.00,WeatherDisplay:10.37,2013-03-27 09:54:00,
2013-03-27 05:59:00,32.4,26.6,28.59,WSW,240,3.0,3.0,79,0.00,CLR,CLR,0.00,WeatherDisplay:10.37,2013-03-27 09:59:00,
2013-03-27 06:04:00,32.3,25.9,28.58,South,184,3.5,3.5,77,0.00,CLR,CLR,0.00,WeatherDisplay:10.37,2013-03-27 10:04:00,
2013-03-27 06:10:00,32.3,25.6,28.58,WSW,247,6.0,6.0,76,0.00,CLR,CLR,0.00,WeatherDisplay:10.37,2013-03-27 10:10:00,
2013-03-27 06:15:00,32.2,25.2,28.58,West,275,6.9,6.9,75,0.00,CLR,CLR,0.00,WeatherDisplay:10.37,2013-03-27 10:15:00,
2013-03-27 06:20:00,32.2,24.8,28.58,West,281,6.9,6.9,74,0.00,CLR,CLR,0.00,WeatherDisplay:10.37,2013-03-27 10:20:00,
2013-03-27 06:25:00,32.2,24.2,28.58,WNW,293,10.4,10.4,72,0.00,CLR,CLR,0.00,WeatherDisplay:10.37,2013-03-27 10:25:00,
2013-03-27 06:30:00,32.2,23.8,28.59,West,278,6.9,6.9,71,0.00,CLR,CLR,0.00,WeatherDisplay:10.37,2013-03-27 10:30:00,
2013-03-27 06:35:00,32.2,23.8,28.58,WNW,288,5.8,5.8,71,0.00,CLR,CLR,0.00,WeatherDisplay:10.37,2013-03-27 10:35:00,
2013-03-27 06:40:00,32.2,23.5,28.58,NNW,339,3.5,3.5,70,0.00,CLR,CLR,0.00,WeatherDisplay:10.37,2013-03-27 10:40:00,
2013-03-27 06:45:00,32.1,23.4,28.59,WNW,291,3.5,3.5,70,0.00,CLR,CLR,0.00,WeatherDisplay:10.37,2013-03-27 10:45:00,
2013-03-27 06:51:00,32.1,23.4,28.58,NW,309,4.6,4.6,70,0.00,CLR,CLR,0.00,WeatherDisplay:10.37,2013-03-27 10:51:00,
2013-03-27 06:56:00,32.2,23.5,28.60,West,270,4.6,4.6,70,0.00,CLR,CLR,0.00,WeatherDisplay:10.37,2013-03-27 10:56:00,
2013-03-27 07:01:00,32.2,23.5,28.60,WSW,245,3.0,3.0,70,0.00,CLR,CLR,0.00,WeatherDisplay:10.37,2013-03-27 11:01:00,
2013-03-27 07:07:00,32.3,23.9,28.61,SW,228,5.0,5.0,71,0.00,CLR,CLR,0.00,WeatherDisplay:10.37,2013-03-27 11:07:00,
2013-03-27 07:12:00,32.3,23.9,28.61,SW,227,3.5,3.5,71,0.00,CLR,CLR,0.00,WeatherDisplay:10.37,2013-03-27 11:12:00,
2013-03-27 07:17:00,32.4,24.0,28.62,SW,224,4.6,4.6,71,0.00,CLR,CLR,0.00,WeatherDisplay:10.37,2013-03-27 11:17:00,
2013-03-27 07:22:00,32.4,24.0,28.61,SW,220,3.5,3.5,71,0.00,CLR,CLR,0.00,WeatherDisplay:10.37,2013-03-27 11:22:00,
2013-03-27 07:27:00,32.5,24.1,28.61,West,273,8.0,8.0,71,0.00,CLR,CLR,0.00,WeatherDisplay:10.37,2013-03-27 11:27:00,
2013-03-27 07:33:00,32.5,24.5,28.86,SSW,211,4.6,4.6,72,0.00,CLR,CLR,0.00,WeatherDisplay:10.37,2013-03-27 11:33:00,
2013-03-27 07:38:00,32.6,24.9,28.85,NW,314,7.0,7.0,73,0.00,CLR,CLR,0.00,WeatherDisplay:10.37,2013-03-27 11:38:00,
2013-03-27 07:43:00,32.7,25.0,28.88,WSW,256,4.6,4.6,73,0.00,CLR,CLR,0.00,WeatherDisplay:10.37,2013-03-27 11:43:00,
2013-03-27 07:48:00,32.7,24.7,28.96,WNW,291,6.9,6.9,72,0.00,CLR,CLR,0.00,WeatherDisplay:10.37,2013-03-27 11:48:00,
2013-03-27 07:53:00,32.7,24.7,28.97,West,281,6.9,6.9,72,0.00,CLR,CLR,0.00,WeatherDisplay:10.37,2013-03-27 11:53:00,
2013-03-27 07:58:00,32.7,24.7,29.00,West,274,3.5,3.5,72,0.00,CLR,CLR,0.00,WeatherDisplay:10.37,2013-03-27 11:58:00,
2013-03-27 08:03:00,32.6,24.6,29.03,WNW,294,3.5,3.5,72,0.00,CLR,CLR,0.00,WeatherDisplay:10.37,2013-03-27 12:03:00,
2013-03-27 08:09:00,32.6,24.6,29.00,West,278,3.0,3.0,72,0.00,CLR,CLR,0.00,WeatherDisplay:10.37,2013-03-27 12:09:00,
2013-03-27 08:14:00,33.3,25.2,29.00,WNW,289,6.0,6.0,72,0.00,CLR,CLR,0.00,WeatherDisplay:10.37,2013-03-27 12:14:00,
2013-03-27 08:19:00,33.8,25.0,28.97,WNW,284,11.5,11.5,70,0.00,CLR,CLR,0.00,WeatherDisplay:10.37,2013-03-27 12:19:00,
2013-03-27 08:24:00,34.4,25.6,29.02,WSW,242,4.6,4.6,70,0.00,CLR,CLR,0.00,WeatherDisplay:10.37,2013-03-27 12:24:00,
2013-03-27 08:29:00,34.9,25.8,29.05,West,278,9.2,9.2,69,0.00,CLR,CLR,0.00,WeatherDisplay:10.37,2013-03-27 12:29:00,
2013-03-27 08:34:00,35.4,25.5,28.99,West,264,11.5,11.5,67,0.00,CLR,CLR,0.00,WeatherDisplay:10.37,2013-03-27 12:34:00,
2013-03-27 08:40:00,35.8,25.9,29.00,NNW,337,7.0,7.0,67,0.00,CLR,CLR,0.00,WeatherDisplay:10.37,2013-03-27 12:40:00,
2013-03-27 08:45:00,36.2,25.9,28.98,WNW,303,5.8,5.8,66,0.00,CLR,CLR,0.00,WeatherDisplay:10.37,2013-03-27 12:45:00,
2013-03-27 08:50:00,36.7,26.4,28.95,WSW,248,3.5,4.3,66,0.00,CLR,CLR,0.00,WeatherDisplay:10.37,2013-03-27 12:50:00,
2013-03-27 08:55:00,37.8,27.8,29.00,West,274,7.0,7.0,67,0.00,CLR,CLR,0.00,WeatherDisplay:10.37,2013-03-27 12:55:00,
2013-03-27 09:00:00,38.1,27.0,28.98,NW,319,5.8,5.8,64,0.00,CLR,CLR,0.00,WeatherDisplay:10.37,2013-03-27 13:00:00,
2013-03-27 09:05:00,38.5,27.0,28.99,NW,316,4.6,4.6,63,0.00,CLR,CLR,0.00,WeatherDisplay:10.37,2013-03-27 13:05:00,
2013-03-27 09:10:00,38.7,27.2,28.96,WNW,299,4.6,4.6,63,0.00,CLR,CLR,0.00,WeatherDisplay:10.37,2013-03-27 13:10:00,
2013-03-27 09:15:00,39.1,26.8,28.97,NW,325,8.1,8.1,61,0.00,CLR,CLR,0.00,WeatherDisplay:10.37,2013-03-27 13:15:00,
2013-03-27 09:20:00,39.6,27.6,28.99,SSE,160,3.0,3.0,62,0.00,CLR,CLR,0.00,WeatherDisplay:10.37,2013-03-27 13:20:00,
2013-03-27 09:26:00,40.2,27.4,28.91,WSW,239,9.2,9.2,60,0.00,CLR,CLR,0.00,WeatherDisplay:10.37,2013-03-27 13:26:00,
2013-03-27 09:31:00,40.9,27.7,28.92,WNW,285,4.6,4.6,59,0.00,CLR,CLR,0.00,WeatherDisplay:10.37,2013-03-27 13:31:00,
2013-03-27 09:36:00,41.1,27.4,28.95,WSW,250,4.6,4.6,58,0.00,CLR,CLR,0.00,WeatherDisplay:10.37,2013-03-27 13:36:00,
2013-03-27 09:42:00,40.1,25.6,28.91,WNW,294,11.5,11.5,56,0.00,CLR,CLR,0.00,WeatherDisplay:10.37,2013-03-27 13:42:00,
2013-03-27 09:47:00,39.4,25.8,28.99,SW,229,5.8,5.8,58,0.00,CLR,CLR,0.00,WeatherDisplay:10.37,2013-03-27 13:47:00,
2013-03-27 09:52:00,40.8,27.2,28.95,NNW,331,7.0,7.0,58,0.00,CLR,CLR,0.00,WeatherDisplay:10.37,2013-03-27 13:52:00,
2013-03-27 09:57:00,41.6,27.5,28.97,SW,216,8.1,8.1,57,0.00,CLR,CLR,0.00,WeatherDisplay:10.37,2013-03-27 13:57:00,
2013-03-27 10:02:00,40.8,25.9,28.94,WNW,283,9.2,9.2,55,0.00,CLR,CLR,0.00,WeatherDisplay:10.37,2013-03-27 14:02:00,
2013-03-27 10:07:00,39.5,25.1,28.93,NNW,330,13.8,13.8,56,0.00,CLR,CLR,0.00,WeatherDisplay:10.37,2013-03-27 14:07:00,
2013-03-27 10:12:00,39.8,25.8,28.98,SW,218,9.2,9.2,57,0.00,CLR,CLR,0.00,WeatherDisplay:10.37,2013-03-27 14:12:00,
2013-03-27 10:17:00,39.6,25.2,28.94,SW,229,10.4,10.4,56,0.00,CLR,CLR,0.00,WeatherDisplay:10.37,2013-03-27 14:17:00,
2013-03-27 10:22:00,40.1,24.8,28.92,WNW,289,12.7,12.7,54,0.00,CLR,CLR,0.00,WeatherDisplay:10.37,2013-03-27 14:22:00,
2013-03-27 10:27:00,39.6,24.3,28.93,West,279,11.5,11.5,54,0.00,CLR,CLR,0.00,WeatherDisplay:10.37,2013-03-27 14:27:00,
2013-03-27 10:33:00,39.7,24.0,28.93,WSW,240,12.7,12.7,53,0.00,CLR,CLR,0.00,WeatherDisplay:10.37,2013-03-27 14:33:00,
2013-03-27 10:38:00,39.1,22.9,28.96,NW,311,18.0,18.0,52,0.00,CLR,CLR,0.00,WeatherDisplay:10.37,2013-03-27 14:38:00,
2013-03-27 10:43:00,38.5,22.8,28.93,NNW,346,9.0,9.0,53,0.00,CLR,CLR,0.00,WeatherDisplay:10.37,2013-03-27 14:43:00,
2013-03-27 10:48:00,38.8,23.1,28.97,NW,307,8.1,8.1,53,0.00,CLR,CLR,0.00,WeatherDisplay:10.37,2013-03-27 14:48:00,
2013-03-27 10:53:00,39.1,24.7,28.96,SSW,204,16.1,16.1,56,0.00,CLR,CLR,0.00,WeatherDisplay:10.37,2013-03-27 14:53:00,
2013-03-27 10:59:00,38.7,24.3,28.94,WSW,248,15.0,15.0,56,0.00,CLR,CLR,0.00,WeatherDisplay:10.37,2013-03-27 14:59:00,
2013-03-27 11:04:00,38.9,24.9,28.97,WSW,257,9.2,9.2,57,0.00,CLR,CLR,0.00,WeatherDisplay:10.37,2013-03-27 15:04:00,
2013-03-27 11:09:00,39.4,24.6,29.00,NW,308,18.4,18.4,55,0.00,CLR,CLR,0.00,WeatherDisplay:10.37,2013-03-27 15:09:00,
2013-03-27 11:14:00,39.8,23.6,29.03,WNW,301,12.7,12.7,52,0.00,CLR,CLR,0.00,WeatherDisplay:10.37,2013-03-27 15:14:00,
2013-03-27 11:19:00,40.1,23.9,29.03,NW,317,17.3,17.3,52,0.00,CLR,CLR,0.00,WeatherDisplay:10.37,2013-03-27 15:19:00,
2013-03-27 11:24:00,40.5,24.7,28.98,West,266,16.1,16.1,53,0.00,CLR,CLR,0.00,WeatherDisplay:10.37,2013-03-27 15:24:00,
2013-03-27 11:29:00,40.5,25.1,28.96,NW,306,13.8,13.8,54,0.00,CLR,CLR,0.00,WeatherDisplay:10.37,2013-03-27 15:29:00,
2013-03-27 11:34:00,40.8,25.9,29.01,WNW,300,11.5,11.5,55,0.00,CLR,CLR,0.00,WeatherDisplay:10.37,2013-03-27 15:34:00,
2013-03-27 11:39:00,40.9,25.1,28.94,WSW,241,12.7,12.7,53,0.00,CLR,CLR,0.00,WeatherDisplay:10.37,2013-03-27 15:39:00,
2013-03-27 11:45:00,41.1,25.7,29.02,WSW,238,9.2,9.2,54,0.00,CLR,CLR,0.00,WeatherDisplay:10.37,2013-03-27 15:45:00,
2013-03-27 11:50:00,40.8,25.0,29.02,WNW,283,10.4,10.4,53,0.00,CLR,CLR,0.00,WeatherDisplay:10.37,2013-03-27 15:50:00,
2013-03-27 11:55:00,39.7,24.0,29.01,WNW,294,6.9,6.9,53,0.00,CLR,CLR,0.00,WeatherDisplay:10.37,2013-03-27 15:55:00,
2013-03-27 12:00:00,39.6,24.7,28.92,NW,325,6.9,6.9,55,0.00,CLR,CLR,0.00,WeatherDisplay:10.37,2013-03-27 16:00:00,
2013-03-27 12:05:00,39.9,24.6,28.98,West,268,4.0,4.1,54,0.00,CLR,CLR,0.00,WeatherDisplay:10.37,2013-03-27 16:05:00,
2013-03-27 12:11:00,39.8,24.0,28.97,WSW,246,15.0,15.0,53,0.00,CLR,CLR,0.00,WeatherDisplay:10.37,2013-03-27 16:11:00,
2013-03-27 12:16:00,39.4,24.1,28.96,WNW,285,3.5,3.5,54,0.00,CLR,CLR,0.00,WeatherDisplay:10.37,2013-03-27 16:16:00,
2013-03-27 12:21:00,39.4,23.7,28.95,NW,314,15.0,15.0,53,0.00,CLR,CLR,0.00,WeatherDisplay:10.37,2013-03-27 16:21:00,
2013-03-27 12:27:00,39.9,25.0,28.96,North,354,13.0,13.0,55,0.00,CLR,CLR,0.00,WeatherDisplay:10.37,2013-03-27 16:27:00,
2013-03-27 12:32:00,40.2,24.9,28.91,NW,309,10.4,10.4,54,0.00,CLR,CLR,0.00,WeatherDisplay:10.37,2013-03-27 16:32:00,
2013-03-27 12:37:00,41.2,25.3,28.90,WNW,286,12.7,12.7,53,0.00,CLR,CLR,0.00,WeatherDisplay:10.37,2013-03-27 16:37:00,
2013-03-27 12:42:00,41.4,25.5,28.92,NW,319,8.0,8.0,53,0.00,CLR,CLR,0.00,WeatherDisplay:10.37,2013-03-27 16:42:00,
2013-03-27 12:47:00,41.7,26.3,28.94,NNW,345,8.1,8.1,54,0.00,CLR,CLR,0.00,WeatherDisplay:10.37,2013-03-27 16:47:00,
2013-03-27 12:53:00,42.2,26.3,28.96,NW,312,8.1,8.1,53,0.00,CLR,CLR,0.00,WeatherDisplay:10.37,2013-03-27 16:53:00,
2013-03-27 12:58:00,42.5,25.6,28.97,NW,305,18.4,18.4,51,0.00,CLR,CLR,0.00,WeatherDisplay:10.37,2013-03-27 16:58:00,
2013-03-27 13:03:00,42.2,25.3,28.95,West,259,17.3,17.3,51,0.00,CLR,CLR,0.00,WeatherDisplay:10.37,2013-03-27 17:03:00,
2013-03-27 13:08:00,42.5,25.6,28.93,WNW,288,15.0,15.0,51,0.00,CLR,CLR,0.00,WeatherDisplay:10.37,2013-03-27 17:08:00,
2013-03-27 13:13:00,42.5,26.1,28.97,NW,304,11.5,11.5,52,0.00,CLR,CLR,0.00,WeatherDisplay:10.37,2013-03-27 17:13:00,
2013-03-27 13:18:00,42.8,25.4,29.02,NW,314,19.6,19.6,50,0.00,CLR,CLR,0.00,WeatherDisplay:10.37,2013-03-27 17:18:00,
2013-03-27 13:23:00,42.2,25.8,29.01,North,352,15.0,15.0,52,0.00,CLR,CLR,0.00,WeatherDisplay:10.37,2013-03-27 17:23:00,
2013-03-27 13:28:00,42.6,26.2,29.01,NW,320,6.9,6.9,52,0.00,CLR,CLR,0.00,WeatherDisplay:10.37,2013-03-27 17:28:00,
2013-03-27 13:34:00,42.7,25.3,29.01,NW,304,15.0,15.0,50,0.00,CLR,CLR,0.00,WeatherDisplay:10.37,2013-03-27 17:34:00,
2013-03-27 13:39:00,43.0,25.1,28.97,NW,324,10.4,10.4,49,0.00,CLR,CLR,0.00,WeatherDisplay:10.37,2013-03-27 17:39:00,
2013-03-27 13:44:00,43.0,25.6,28.97,NW,307,24.2,24.2,50,0.00,CLR,CLR,0.00,WeatherDisplay:10.37,2013-03-27 17:44:00,
2013-03-27 13:49:00,42.7,25.8,29.06,NW,312,12.0,12.0,51,0.00,CLR,CLR,0.00,WeatherDisplay:10.37,2013-03-27 17:49:00,
2013-03-27 13:54:00,42.0,24.7,28.99,NNW,344,18.0,18.0,50,0.00,CLR,CLR,0.00,WeatherDisplay:10.37,2013-03-27 17:54:00,
2013-03-27 13:59:00,41.5,25.2,29.02,WNW,293,18.0,18.0,52,0.00,CLR,CLR,0.00,WeatherDisplay:10.37,2013-03-27 17:59:00,
2013-03-27 14:05:00,41.4,24.1,28.97,NNW,334,17.3,17.3,50,0.00,CLR,CLR,0.00,WeatherDisplay:10.37,2013-03-27 18:05:00,
2013-03-27 14:10:00,40.7,24.4,29.02,NNW,331,12.7,12.7,52,0.00,CLR,CLR,0.00,WeatherDisplay:10.37,2013-03-27 18:10:00,
2013-03-27 14:15:00,40.6,24.8,28.94,West,272,15.0,15.0,53,0.00,CLR,CLR,0.00,WeatherDisplay:10.37,2013-03-27 18:15:00,
2013-03-27 14:20:00,40.7,24.9,28.99,WNW,297,19.6,19.6,53,0.00,CLR,CLR,0.00,WeatherDisplay:10.37,2013-03-27 18:20:00,
2013-03-27 14:25:00,40.7,24.4,29.04,NNW,347,16.1,16.1,52,0.00,CLR,CLR,0.00,WeatherDisplay:10.37,2013-03-27 18:25:00,
2013-03-27 14:30:00,40.8,25.0,28.93,West,277,10.4,10.4,53,0.00,CLR,CLR,0.00,WeatherDisplay:10.37,2013-03-27 18:30:00,
2013-03-27 14:35:00,41.1,25.3,28.91,NW,310,8.1,8.1,53,0.00,CLR,CLR,0.00,WeatherDisplay:10.37,2013-03-27 18:35:00,
2013-03-27 14:41:00,41.3,25.4,28.95,NNW,345,18.4,18.4,53,0.00,CLR,CLR,0.00,WeatherDisplay:10.37,2013-03-27 18:41:00,
2013-03-27 14:46:00,41.6,25.7,28.98,North,355,17.3,17.3,53,0.00,CLR,CLR,0.00,WeatherDisplay:10.37,2013-03-27 18:46:00,
2013-03-27 14:51:00,41.7,25.8,28.93,NNW,333,12.7,12.7,53,0.00,CLR,CLR,0.00,WeatherDisplay:10.37,2013-03-27 18:51:00,
2013-03-27 14:56:00,42.0,25.6,28.91,North,2,10.4,10.4,52,0.00,CLR,CLR,0.00,WeatherDisplay:10.37,2013-03-27 18:56:00,
2013-03-27 15:01:00,42.1,25.3,28.90,NW,318,11.5,11.5,51,0.00,CLR,CLR,0.00,WeatherDisplay:10.37,2013-03-27 19:01:00,
2013-03-27 15:07:00,42.0,25.6,28.92,NNW,341,17.3,17.3,52,0.00,CLR,CLR,0.00,WeatherDisplay:10.37,2013-03-27 19:07:00,
2013-03-27 15:12:00,42.3,25.9,28.94,WNW,302,10.4,10.4,52,0.00,CLR,CLR,0.00,WeatherDisplay:10.37,2013-03-27 19:12:00,
2013-03-27 15:17:00,43.1,27.1,28.98,NNW,327,17.3,17.3,53,0.00,CLR,CLR,0.00,WeatherDisplay:10.37,2013-03-27 19:17:00,
2013-03-27 15:22:00,43.2,25.8,28.93,NW,306,9.2,9.2,50,0.00,CLR,CLR,0.00,WeatherDisplay:10.37,2013-03-27 19:22:00,
2013-03-27 15:27:00,42.8,24.9,28.95,NNW,346,19.6,19.6,49,0.00,CLR,CLR,0.00,WeatherDisplay:10.37,2013-03-27 19:27:00,
2013-03-27 15:33:00,42.0,24.7,28.99,WNW,303,11.5,11.5,50,0.00,CLR,CLR,0.00,WeatherDisplay:10.37,2013-03-27 19:33:00,
2013-03-27 15:38:00,41.7,24.9,28.96,WNW,301,11.5,11.5,51,0.00,CLR,CLR,0.00,WeatherDisplay:10.37,2013-03-27 19:38:00,
2013-03-27 15:43:00,41.7,25.8,29.02,WSW,254,4.6,4.6,53,0.00,CLR,CLR,0.00,WeatherDisplay:10.37,2013-03-27 19:43:00,
2013-03-27 15:48:00,42.0,26.1,28.98,NNW,328,10.0,10.0,53,0.00,CLR,CLR,0.00,WeatherDisplay:10.37,2013-03-27 19:48:00,
2013-03-27 15:53:00,41.8,25.9,28.98,WNW,300,13.8,13.8,53,0.00,CLR,CLR,0.00,WeatherDisplay:10.37,2013-03-27 19:53:00,
2013-03-27 15:58:00,42.2,25.3,28.97,WNW,283,15.0,15.0,51,0.00,CLR,CLR,0.00,WeatherDisplay:10.37,2013-03-27 19:58:00,
2013-03-27 16:03:00,41.9,25.1,28.97,WNW,294,13.8,13.8,51,0.00,CLR,CLR,0.00,WeatherDisplay:10.37,2013-03-27 20:03:00,
2013-03-27 16:09:00,41.8,25.0,28.91,West,281,13.8,13.8,51,0.00,CLR,CLR,0.00,WeatherDisplay:10.37,2013-03-27 20:09:00,
2013-03-27 16:14:00,41.4,25.1,28.90,WNW,303,10.0,10.0,52,0.00,CLR,CLR,0.00,WeatherDisplay:10.37,2013-03-27 20:14:00,
2013-03-27 16:19:00,41.4,25.5,28.94,North,351,8.1,8.1,53,0.00,CLR,CLR,0.00,WeatherDisplay:10.37,2013-03-27 20:19:00,
2013-03-27 16:24:00,41.7,25.4,28.89,NNW,332,6.9,6.9,52,0.00,CLR,CLR,0.00,WeatherDisplay:10.37,2013-03-27 20:24:00,
2013-03-27 16:29:00,41.4,25.5,28.89,North,5,8.1,8.1,53,0.00,CLR,CLR,0.00,WeatherDisplay:10.37,2013-03-27 20:29:00,
2013-03-27 16:34:00,41.6,26.2,28.96,West,280,11.0,11.0,54,0.00,CLR,CLR,0.00,WeatherDisplay:10.37,2013-03-27 20:34:00,
2013-03-27 16:39:00,42.0,25.6,28.85,WSW,239,10.4,10.4,52,0.00,CLR,CLR,0.00,WeatherDisplay:10.37,2013-03-27 20:39:00,
2013-03-27 16:44:00,42.6,25.2,28.87,WNW,284,15.0,15.0,50,0.00,CLR,CLR,0.00,WeatherDisplay:10.37,2013-03-27 20:44:00,
2013-03-27 16:49:00,42.7,25.8,28.87,WNW,290,8.1,8.1,51,0.00,CLR,CLR,0.00,WeatherDisplay:10.37,2013-03-27 20:49:00,
2013-03-27 16:55:00,42.6,25.2,28.84,WSW,241,16.1,16.1,50,0.00,CLR,CLR,0.00,WeatherDisplay:10.37,2013-03-27 20:55:00,
2013-03-27 17:00:00,42.5,25.1,28.87,West,273,9.0,9.0,50,0.00,CLR,CLR,0.00,WeatherDisplay:10.37,2013-03-27 21:00:00,
2013-03-27 17:05:00,42.7,24.8,28.90,NNW,328,12.7,12.7,49,0.00,CLR,CLR,0.00,WeatherDisplay:10.37,2013-03-27 21:05:00,
2013-03-27 17:10:00,42.6,24.8,28.89,West,265,6.9,7.0,49,0.00,CLR,CLR,0.00,WeatherDisplay:10.37,2013-03-27 21:10:00,
2013-03-27 17:15:00,42.8,24.9,28.92,West,272,5.8,5.8,49,0.00,CLR,CLR,0.00,WeatherDisplay:10.37,2013-03-27 21:15:00,
2013-03-27 17:20:00,43.0,25.1,28.86,SW,227,11.5,11.5,49,0.00,CLR,CLR,0.00,WeatherDisplay:10.37,2013-03-27 21:20:00,
2013-03-27 17:25:00,43.1,25.2,28.82,WSW,245,10.4,10.4,49,0.00,CLR,CLR,0.00,WeatherDisplay:10.37,2013-03-27 21:25:00,
2013-03-27 17:30:00,42.8,24.4,28.88,West,267,16.0,16.0,48,0.00,CLR,CLR,0.00,WeatherDisplay:10.37,2013-03-27 21:30:00,
2013-03-27 17:35:00,42.3,24.0,28.91,West,276,12.7,12.7,48,0.00,CLR,CLR,0.00,WeatherDisplay:10.37,2013-03-27 21:35:00,
2013-03-27 17:40:00,42.1,23.8,28.92,West,273,18.4,18.4,48,0.00,CLR,CLR,0.00,WeatherDisplay:10.37,2013-03-27 21:40:00,
2013-03-27 17:45:00,42.0,24.2,28.95,West,268,7.0,7.0,49,0.00,CLR,CLR,0.00,WeatherDisplay:10.37,2013-03-27 21:45:00,
2013-03-27 17:50:00,42.0,24.7,28.93,WSW,250,8.1,8.1,50,0.00,CLR,CLR,0.00,WeatherDisplay:10.37,2013-03-27 21:50:00,
2013-03-27 17:56:00,42.1,25.3,28.91,SW,216,12.0,12.0,51,0.00,CLR,CLR,0.00,WeatherDisplay:10.37,2013-03-27 21:56:00,
2013-03-27 18:01:00,42.1,24.8,28.91,West,262,11.5,11.5,50,0.00,CLR,CLR,0.00,WeatherDisplay:10.37,2013-03-27 22:01:00,
2013-03-27 18:06:00,41.8,25.0,28.58,WNW,283,5.8,5.8,51,0.00,CLR,CLR,0.00,WeatherDisplay:10.37,2013-03-27 22:06:00,
2013-03-27 18:12:00,41.5,24.7,28.58,West,271,15.0,15.0,51,0.00,CLR,CLR,0.00,WeatherDisplay:10.37,2013-03-27 22:12:00,
2013-03-27 18:17:00,41.4,24.1,28.58,West,272,16.1,16.1,50,0.00,CLR,CLR,0.00,WeatherDisplay:10.37,2013-03-27 22:17:00,
2013-03-27 18:22:00,41.5,24.7,28.58,West,281,11.5,11.5,51,0.00,CLR,CLR,0.00,WeatherDisplay:10.37,2013-03-27 22:22:00,
2013-03-27 18:27:00,41.6,24.8,28.58,WNW,292,13.8,13.8,51,0.00,CLR,CLR,0.00,WeatherDisplay:10.37,2013-03-27 22:27:00,
2013-03-27 18:32:00,41.4,24.6,28.58,WNW,295,12.7,12.7,51,0.00,CLR,CLR,0.00,WeatherDisplay:10.37,2013-03-27 22:32:00,
2013-03-27 18:37:00,41.1,24.8,28.58,NW,311,9.2,9.2,52,0.00,CLR,CLR,0.00,WeatherDisplay:10.37,2013-03-27 22:37:00,
2013-03-27 18:42:00,41.0,24.7,28.58,West,266,6.9,6.9,52,0.00,CLR,CLR,0.00,WeatherDisplay:10.37,2013-03-27 22:42:00,
2013-03-27 18:48:00,40.9,25.1,28.59,West,276,11.5,11.5,53,0.00,CLR,CLR,0.00,WeatherDisplay:10.37,2013-03-27 22:48:00,
2013-03-27 18:53:00,40.7,24.4,28.59,WNW,301,11.5,11.5,52,0.00,CLR,CLR,0.00,WeatherDisplay:10.37,2013-03-27 22:53:00,
2013-03-27 18:58:00,40.6,24.8,28.60,NW,313,9.2,9.2,53,0.00,CLR,CLR,0.00,WeatherDisplay:10.37,2013-03-27 22:58:00,
2013-03-27 19:03:00,40.5,24.7,28.60,WSW,256,10.4,10.4,53,0.00,CLR,CLR,0.00,WeatherDisplay:10.37,2013-03-27 23:03:00,
2013-03-27 19:08:00,40.5,25.1,28.60,SW,226,3.5,3.5,54,0.00,CLR,CLR,0.00,WeatherDisplay:10.37,2013-03-27 23:08:00,
2013-03-27 19:13:00,40.4,25.1,28.60,SW,224,13.0,13.0,54,0.00,CLR,CLR,0.00,WeatherDisplay:10.37,2013-03-27 23:13:00,
2013-03-27 19:18:00,40.3,25.4,28.60,SW,223,11.5,11.5,55,0.00,CLR,CLR,0.00,WeatherDisplay:10.37,2013-03-27 23:18:00,
2013-03-27 19:24:00,40.0,25.1,28.60,West,279,3.5,3.5,55,0.00,CLR,CLR,0.00,WeatherDisplay:10.37,2013-03-27 23:24:00,
2013-03-27 19:29:00,39.9,25.5,28.60,SSW,194,6.9,6.9,56,0.00,CLR,CLR,0.00,WeatherDisplay:10.37,2013-03-27 23:29:00,
2013-03-27 19:34:00,39.7,25.3,28.61,West,259,8.1,8.1,56,0.00,CLR,CLR,0.00,WeatherDisplay:10.37,2013-03-27 23:34:00,
2013-03-27 19:39:00,39.3,25.3,28.61,West,272,5.8,5.8,57,0.00,CLR,CLR,0.00,WeatherDisplay:10.37,2013-03-27 23:39:00,
2013-03-27 19:44:00,39.1,25.1,28.60,West,269,15.0,15.0,57,0.00,CLR,CLR,0.00,WeatherDisplay:10.37,2013-03-27 23:44:00,
2013-03-27 19:49:00,38.9,24.9,28.61,NW,313,10.4,10.4,57,0.00,CLR,CLR,0.00,WeatherDisplay:10.37,2013-03-27 23:49:00,
2013-03-27 19:54:00,38.7,24.8,28.61,West,263,6.9,6.9,57,0.00,CLR,CLR,0.00,WeatherDisplay:10.37,2013-03-27 23:54:00,
2013-03-27 20:00:00,38.4,24.9,28.61,West,269,5.0,5.0,58,0.00,CLR,CLR,0.00,WeatherDisplay:10.37,2013-03-28 00:00:00,
2013-03-27 20:05:00,38.2,24.7,28.61,West,272,3.5,3.5,58,0.00,CLR,CLR,0.00,WeatherDisplay:10.37,2013-03-28 00:05:00,
2013-03-27 20:10:00,38.0,24.5,28.61,West,272,3.5,3.5,58,0.00,CLR,CLR,0.00,WeatherDisplay:10.37,2013-03-28 00:10:00,
2013-03-27 20:15:00,37.9,24.8,28.61,West,272,3.5,3.5,59,0.00,CLR,CLR,0.00,WeatherDisplay:10.37,2013-03-28 00:15:00,
2013-03-27 20:21:00,37.7,25.1,28.61,West,271,3.5,3.5,60,0.00,CLR,CLR,0.00,WeatherDisplay:10.37,2013-03-28 00:21:00,
2013-03-27 20:26:00,37.5,24.9,28.62,West,271,2.3,2.3,60,0.00,CLR,CLR,0.00,WeatherDisplay:10.37,2013-03-28 00:26:00,
2013-03-27 20:31:00,37.3,25.1,28.61,SW,219,3.5,3.5,61,0.00,CLR,CLR,0.00,WeatherDisplay:10.37,2013-03-28 00:31:00,
2013-03-27 20:36:00,37.1,24.9,28.61,SW,214,4.6,4.6,61,0.00,CLR,CLR,0.00,WeatherDisplay:10.37,2013-03-28 00:36:00,
2013-03-27 20:41:00,36.9,24.7,28.61,SW,234,1.2,1.2,61,0.00,CLR,CLR,0.00,WeatherDisplay:10.37,2013-03-28 00:41:00,
2013-03-27 20:47:00,36.8,25.0,28.61,SW,234,3.5,3.5,62,0.00,CLR,CLR,0.00,WeatherDisplay:10.37,2013-03-28 00:47:00,
2013-03-27 20:52:00,36.7,24.9,28.61,SW,234,3.5,3.5,62,0.00,CLR,CLR,0.00,WeatherDisplay:10.37,2013-03-28 00:52:00,
2013-03-27 20:57:00,36.6,25.2,28.61,WSW,249,3.5,3.5,63,0.00,CLR,CLR,0.00,WeatherDisplay:10.37,2013-03-28 00:57:00,
2013-03-27 21:02:00,36.6,24.8,28.61,WSW,258,4.6,4.6,62,0.00,CLR,CLR,0.00,WeatherDisplay:10.37,2013-03-28 01:02:00,
2013-03-27 21:08:00,36.5,24.7,28.62,West,272,3.5,3.5,62,0.00,CLR,CLR,0.00,WeatherDisplay:10.37,2013-03-28 01:08:00,
2013-03-27 21:13:00,36.4,24.6,28.61,West,273,2.3,2.3,62,0.00,CLR,CLR,0.00,WeatherDisplay:10.37,2013-03-28 01:13:00,
2013-03-27 21:18:00,36.3,24.9,28.61,West,272,0.0,0.0,63,0.00,CLR,CLR,0.00,WeatherDisplay:10.37,2013-03-28 01:18:00,
2013-03-27 21:23:00,36.2,24.8,28.62,WSW,249,2.3,2.3,63,0.00,CLR,CLR,0.00,WeatherDisplay:10.37,2013-03-28 01:23:00,
2013-03-27 21:28:00,36.0,25.0,28.62,SW,234,3.5,3.5,64,0.00,CLR,CLR,0.00,WeatherDisplay:10.37,2013-03-28 01:28:00,
2013-03-27 21:34:00,35.8,24.8,28.62,SW,234,3.5,3.5,64,0.00,CLR,CLR,0.00,WeatherDisplay:10.37,2013-03-28 01:34:00,
2013-03-27 21:39:00,35.6,25.0,28.62,WSW,250,4.0,4.0,65,0.00,CLR,CLR,0.00,WeatherDisplay:10.37,2013-03-28 01:39:00,
2013-03-27 21:44:00,35.7,24.7,28.62,WNW,298,3.5,3.5,64,0.00,CLR,CLR,0.00,WeatherDisplay:10.37,2013-03-28 01:44:00,
2013-03-27 21:49:00,35.7,24.7,28.62,WNW,289,3.5,3.5,64,0.00,CLR,CLR,0.00,WeatherDisplay:10.37,2013-03-28 01:49:00,
2013-03-27 21:54:00,35.7,24.7,28.62,NW,305,3.5,3.5,64,0.00,CLR,CLR,0.00,WeatherDisplay:10.37,2013-03-28 01:54:00,
2013-03-27 21:59:00,35.6,25.0,28.63,SW,225,4.0,4.0,65,0.00,CLR,CLR,0.00,WeatherDisplay:10.37,2013-03-28 01:59:00,
2013-03-27 22:05:00,35.5,24.9,28.63,SSW,212,2.3,2.3,65,0.00,CLR,CLR,0.00,WeatherDisplay:10.37,2013-03-28 02:05:00,
2013-03-27 22:10:00,35.5,24.9,28.62,West,272,3.5,3.5,65,0.00,CLR,CLR,0.00,WeatherDisplay:10.37,2013-03-28 02:10:00,
2013-03-27 22:15:00,35.3,24.7,28.63,West,272,3.5,3.5,65,0.00,CLR,CLR,0.00,WeatherDisplay:10.37,2013-03-28 02:15:00,
2013-03-27 22:20:00,35.2,24.6,28.62,SW,235,3.5,3.5,65,0.00,CLR,CLR,0.00,WeatherDisplay:10.37,2013-03-28 02:20:00,
2013-03-27 22:26:00,35.1,24.5,28.62,SW,234,3.5,3.5,65,0.00,CLR,CLR,0.00,WeatherDisplay:10.37,2013-03-28 02:26:00,
2013-03-27 22:31:00,35.0,24.8,28.63,WSW,246,5.0,5.0,66,0.00,CLR,CLR,0.00,WeatherDisplay:10.37,2013-03-28 02:31:00,
2013-03-27 22:36:00,35.0,24.8,28.62,SSW,209,5.8,5.8,66,0.00,CLR,CLR,0.00,WeatherDisplay:10.37,2013-03-28 02:36:00,
2013-03-27 22:41:00,35.1,24.9,28.63,SSE,163,3.5,3.5,66,0.00,CLR,CLR,0.00,WeatherDisplay:10.37,2013-03-28 02:41:00,
2013-03-27 22:46:00,35.0,24.8,28.62,SSE,165,3.5,3.5,66,0.00,CLR,CLR,0.00,WeatherDisplay:10.37,2013-03-28 02:46:00,
2013-03-27 22:51:00,35.0,24.8,28.63,West,264,4.6,4.6,66,0.00,CLR,CLR,0.00,WeatherDisplay:10.37,2013-03-28 02:51:00,
2013-03-27 22:56:00,35.0,25.1,28.62,SW,235,5.8,5.8,67,0.00,CLR,CLR,0.00,WeatherDisplay:10.37,2013-03-28 02:56:00,
2013-03-27 23:02:00,34.9,25.0,28.62,West,274,5.8,5.8,67,0.00,CLR,CLR,0.00,WeatherDisplay:10.37,2013-03-28 03:02:00,
2013-03-27 23:07:00,34.9,25.0,28.62,West,273,0.0,0.0,67,0.00,CLR,CLR,0.00,WeatherDisplay:10.37,2013-03-28 03:07:00,
2013-03-27 23:12:00,34.8,25.0,28.62,West,280,3.5,3.5,67,0.00,CLR,CLR,0.00,WeatherDisplay:10.37,2013-03-28 03:12:00,
2013-03-27 23:17:00,34.6,25.1,28.62,SW,236,3.5,3.5,68,0.00,CLR,CLR,0.00,WeatherDisplay:10.37,2013-03-28 03:17:00,
2013-03-27 23:22:00,34.4,24.6,28.62,SW,231,2.3,2.3,67,0.00,CLR,CLR,0.00,WeatherDisplay:10.37,2013-03-28 03:22:00,
2013-03-27 23:27:00,34.2,24.7,28.62,SSW,211,3.5,3.5,68,0.00,CLR,CLR,0.00,WeatherDisplay:10.37,2013-03-28 03:27:00,
2013-03-27 23:32:00,34.1,24.6,28.63,SSW,211,1.2,0.0,68,0.00,CLR,CLR,0.00,WeatherDisplay:10.37,2013-03-28 03:32:00,
2013-03-27 23:38:00,34.0,24.5,28.63,SSW,211,3.5,3.5,68,0.00,CLR,CLR,0.00,WeatherDisplay:10.37,2013-03-28 03:38:00,
2013-03-27 23:43:00,33.9,24.8,28.62,SSW,210,2.3,2.3,69,0.00,CLR,CLR,0.00,WeatherDisplay:10.37,2013-03-28 03:43:00,
2013-03-27 23:48:00,33.9,24.8,28.62,SW,223,3.5,3.5,69,0.00,CLR,CLR,0.00,WeatherDisplay:10.37,2013-03-28 03:48:00,
2013-03-27 23:54:00,33.9,24.8,28.63,SW,220,3.5,3.5,69,0.00,CLR,CLR,0.00,WeatherDisplay:10.37,2013-03-28 03:54:00,
2013-03-27 23:59:00,34.0,24.9,28.62,WNW,292,3.5,3.5,69,0.00,CLR,CLR,0.00,WeatherDisplay:10.37,2013-03-28 03:59:00,